TAP1528 DGAA-LPPT

Flight info

Callsign TAP1528
Flight time 5h 29m
Altitude 35000
Route ACC UB726 KILMO DCT TATAT DCT IPUTA DCT ABALA DCT MIGNI DCT EREBO/N0465F360 UA604 MNA UM999 ARIAM/N0450F380 UM999 ALM UN726 BAMBA DCT ORTOP DCT VATZI
Aircraft A21N/M-SDE2E3FGHIRWXY/LB1

Departure

Time 2026-04-27 10:12
Airport Kotoka International Airport (DGAA)

Arrival

Time 2026-04-27 15:42
Airport Lisbon Humberto Delgado Airport (LPPT)
Time Latitude Longitude Altitude Speed Heading
2026-04-27 10:01 5.60163 -0.17194 217 ft 0 kts 292°
2026-04-27 10:02 5.60155 -0.17174 221 ft 4 kts 292°
2026-04-27 10:03 5.60145 -0.17149 215 ft 4 kts 292°
2026-04-27 10:03 5.60137 -0.17129 218 ft 4 kts 296°
2026-04-27 10:03 5.60122 -0.17109 214 ft 4 kts 330°
2026-04-27 10:03 5.60100 -0.17105 213 ft 3 kts 20°
2026-04-27 10:04 5.60096 -0.17106 218 ft 1 kts 22°
2026-04-27 10:07 5.60110 -0.17101 213 ft 4 kts 22°
2026-04-27 10:07 5.60159 -0.17080 214 ft 13 kts 23°
2026-04-27 10:07 5.60251 -0.17042 219 ft 16 kts 22°
2026-04-27 10:07 5.60366 -0.16994 222 ft 22 kts 23°
2026-04-27 10:08 5.60522 -0.16930 224 ft 25 kts 22°
2026-04-27 10:08 5.60687 -0.16863 227 ft 26 kts 22°
2026-04-27 10:08 5.60856 -0.16792 228 ft 27 kts 22°
2026-04-27 10:08 5.61035 -0.16718 227 ft 28 kts 22°
2026-04-27 10:09 5.61218 -0.16643 225 ft 29 kts 22°
2026-04-27 10:09 5.61406 -0.16565 223 ft 30 kts 22°
2026-04-27 10:09 5.61596 -0.16482 221 ft 29 kts 43°
2026-04-27 10:09 5.61612 -0.16390 218 ft 14 kts 113°
2026-04-27 10:10 5.61593 -0.16294 222 ft 13 kts 142°
2026-04-27 10:10 5.61561 -0.16293 219 ft 0 kts 206°
2026-04-27 10:11 5.61387 -0.16366 223 ft 63 kts 202°
2026-04-27 10:12 5.60765 -0.16623 230 ft 130 kts 202°
2026-04-27 10:12 5.59730 -0.17048 216 ft 183 kts 202°
2026-04-27 10:12 5.58570 -0.17542 820 ft 179 kts 206°
2026-04-27 10:12 5.57378 -0.17997 1350 ft 193 kts 198°
2026-04-27 10:13 5.55986 -0.18251 1724 ft 215 kts 175°
2026-04-27 10:13 5.54524 -0.17720 2082 ft 239 kts 142°
2026-04-27 10:13 5.53496 -0.16346 2483 ft 257 kts 106°
2026-04-27 10:13 5.53470 -0.14555 3185 ft 263 kts 71°
2026-04-27 10:14 5.54361 -0.12948 3950 ft 266 kts 53°
2026-04-27 10:14 5.55475 -0.11448 4729 ft 269 kts 53°
2026-04-27 10:14 5.56588 -0.09956 5486 ft 271 kts 51°
2026-04-27 10:14 5.57986 -0.08681 6248 ft 274 kts 30°
2026-04-27 10:15 5.59733 -0.07891 6989 ft 277 kts 22°
2026-04-27 10:15 5.61546 -0.07211 7748 ft 278 kts 22°
2026-04-27 10:15 5.63337 -0.06537 8484 ft 279 kts 24°
2026-04-27 10:15 5.65150 -0.05834 9264 ft 280 kts 25°
2026-04-27 10:16 5.66966 -0.05112 10036 ft 281 kts 26°
2026-04-27 10:16 5.68831 -0.04359 10417 ft 298 kts 26°
2026-04-27 10:16 5.70824 -0.03547 10669 ft 318 kts 26°
2026-04-27 10:16 5.72931 -0.02689 10899 ft 336 kts 26°
2026-04-27 10:17 5.75160 -0.01783 11121 ft 354 kts 26°
2026-04-27 10:17 5.77498 -0.00833 11328 ft 370 kts 25°
2026-04-27 10:17 5.79938 0.00162 11516 ft 385 kts 25°
2026-04-27 10:17 5.82434 0.01186 11738 ft 397 kts 25°
2026-04-27 10:18 5.85002 0.02244 12132 ft 402 kts 25°
2026-04-27 10:18 5.87600 0.03315 12555 ft 405 kts 25°
2026-04-27 10:18 5.90221 0.04396 12975 ft 409 kts 25°
2026-04-27 10:18 5.92866 0.05486 13403 ft 413 kts 24°
2026-04-27 10:19 5.95628 0.06363 13816 ft 420 kts 13°
2026-04-27 10:19 5.98539 0.06768 14164 ft 425 kts
2026-04-27 10:19 6.01493 0.07038 14520 ft 427 kts
2026-04-27 10:19 6.04467 0.07298 14924 ft 430 kts
2026-04-27 10:20 6.07447 0.07580 15354 ft 432 kts
2026-04-27 10:20 6.10446 0.07887 15756 ft 434 kts
2026-04-27 10:20 6.13462 0.08209 16099 ft 436 kts
2026-04-27 10:20 6.16457 0.08534 16423 ft 438 kts
2026-04-27 10:21 6.19500 0.08865 16750 ft 440 kts
2026-04-27 10:21 6.22557 0.09198 17084 ft 442 kts
2026-04-27 10:21 6.25629 0.09533 17408 ft 444 kts
2026-04-27 10:21 6.28711 0.09871 17736 ft 446 kts
2026-04-27 10:22 6.31763 0.10201 18055 ft 447 kts
2026-04-27 10:22 6.34868 0.10538 18354 ft 449 kts
2026-04-27 10:22 6.37994 0.10878 18628 ft 452 kts
2026-04-27 10:22 6.41126 0.11218 18909 ft 453 kts
2026-04-27 10:23 6.44274 0.11558 19186 ft 455 kts
2026-04-27 10:23 6.47432 0.11900 19486 ft 457 kts
2026-04-27 10:23 6.50607 0.12244 19774 ft 460 kts
2026-04-27 10:23 6.53803 0.12590 20068 ft 462 kts
2026-04-27 10:24 6.56970 0.12935 20359 ft 465 kts
2026-04-27 10:24 6.60168 0.13442 20659 ft 466 kts 15°
2026-04-27 10:24 6.63275 0.14418 20998 ft 468 kts 19°
2026-04-27 10:24 6.66365 0.15487 21375 ft 471 kts 19°
2026-04-27 10:25 6.69490 0.16514 21742 ft 474 kts 18°
2026-04-27 10:25 6.72660 0.17499 22093 ft 477 kts 17°
2026-04-27 10:25 6.75852 0.18462 22417 ft 480 kts 16°
2026-04-27 10:25 6.79065 0.19423 22725 ft 483 kts 16°
2026-04-27 10:26 6.82299 0.20391 23017 ft 486 kts 16°
2026-04-27 10:26 6.85550 0.21364 23274 ft 488 kts 16°
2026-04-27 10:26 6.88753 0.22324 23386 ft 469 kts 16°
2026-04-27 10:26 6.91779 0.23230 23366 ft 449 kts 16°
2026-04-27 10:27 6.94717 0.24106 23303 ft 430 kts 16°
2026-04-27 10:27 6.97532 0.24943 23217 ft 413 kts 16°
2026-04-27 10:27 7.00238 0.25750 23139 ft 397 kts 16°
2026-04-27 10:27 7.02845 0.26528 23049 ft 382 kts 15°
2026-04-27 10:28 7.05319 0.27260 22965 ft 367 kts 16°
2026-04-27 10:28 7.07725 0.27972 22879 ft 353 kts 16°
2026-04-27 10:28 7.10039 0.28656 22791 ft 339 kts 16°
2026-04-27 10:28 7.12250 0.29311 22701 ft 325 kts 16°
2026-04-27 10:29 7.14430 0.29960 22705 ft 337 kts 16°
2026-04-27 10:29 7.16706 0.30645 22844 ft 346 kts 16°
2026-04-27 10:29 7.19085 0.31364 23041 ft 366 kts 16°
2026-04-27 10:29 7.21578 0.32118 23222 ft 379 kts 16°
2026-04-27 10:30 7.24136 0.32892 23378 ft 389 kts 16°
2026-04-27 10:30 7.26766 0.33690 23527 ft 400 kts 16°
2026-04-27 10:30 7.29433 0.34499 23646 ft 410 kts 16°
2026-04-27 10:30 7.32199 0.35340 23769 ft 419 kts 16°
2026-04-27 10:31 7.35031 0.36200 23876 ft 428 kts 16°
2026-04-27 10:31 7.37918 0.37076 23991 ft 437 kts 16°
2026-04-27 10:31 7.40856 0.37967 24096 ft 445 kts 16°
2026-04-27 10:31 7.43849 0.38876 24198 ft 453 kts 16°
2026-04-27 10:32 7.46859 0.39790 24294 ft 460 kts 16°
2026-04-27 10:32 7.49956 0.40730 24390 ft 467 kts 16°
2026-04-27 10:32 7.53097 0.41682 24485 ft 474 kts 16°
2026-04-27 10:32 7.55200 0.42319 24538 ft 478 kts 16°
2026-04-27 10:33 7.58415 0.43294 24639 ft 485 kts 16°
2026-04-27 10:33 7.61667 0.44280 24752 ft 489 kts 16°
2026-04-27 10:33 7.64942 0.45270 24959 ft 491 kts 16°
2026-04-27 10:33 7.68220 0.46260 25232 ft 491 kts 16°
2026-04-27 10:34 7.71488 0.47247 25518 ft 491 kts 16°
2026-04-27 10:34 7.74728 0.48224 25800 ft 490 kts 17°
2026-04-27 10:34 7.77996 0.49210 26093 ft 490 kts 17°
2026-04-27 10:34 7.81262 0.50195 26379 ft 489 kts 17°
2026-04-27 10:35 7.84529 0.51180 26674 ft 489 kts 17°
2026-04-27 10:35 7.87798 0.52166 26952 ft 489 kts 17°
2026-04-27 10:35 7.91067 0.53152 27219 ft 489 kts 17°
2026-04-27 10:35 7.94291 0.54124 27507 ft 489 kts 17°
2026-04-27 10:36 7.97552 0.55111 27787 ft 489 kts 17°
2026-04-27 10:36 8.00817 0.56096 28033 ft 489 kts 17°
2026-04-27 10:36 8.04087 0.57074 28292 ft 490 kts 17°
2026-04-27 10:36 8.07362 0.58036 28564 ft 490 kts 16°
2026-04-27 10:37 8.10641 0.58992 28839 ft 490 kts 16°
2026-04-27 10:37 8.13918 0.59951 29117 ft 490 kts 16°
2026-04-27 10:37 8.17147 0.60895 29380 ft 490 kts 17°
2026-04-27 10:37 8.20429 0.61854 29659 ft 490 kts 17°
2026-04-27 10:38 8.23704 0.62814 29933 ft 489 kts 17°
2026-04-27 10:38 8.26980 0.63776 30195 ft 489 kts 17°
2026-04-27 10:38 8.30250 0.64738 30448 ft 488 kts 17°
2026-04-27 10:38 8.33514 0.65697 30726 ft 487 kts 17°
2026-04-27 10:39 8.36761 0.66650 31006 ft 486 kts 17°
2026-04-27 10:39 8.39966 0.67592 31288 ft 484 kts 17°
2026-04-27 10:39 8.43205 0.68543 31568 ft 483 kts 16°
2026-04-27 10:39 8.46439 0.69495 31855 ft 482 kts 16°
2026-04-27 10:40 8.49655 0.70443 32141 ft 480 kts 16°
2026-04-27 10:40 8.52865 0.71385 32425 ft 479 kts 16°
2026-04-27 10:40 8.56069 0.72326 32702 ft 478 kts 16°
2026-04-27 10:40 8.59226 0.73254 32957 ft 477 kts 16°
2026-04-27 10:41 8.62414 0.74193 33203 ft 476 kts 16°
2026-04-27 10:41 8.65598 0.75129 33452 ft 475 kts 16°
2026-04-27 10:41 8.68771 0.76064 33684 ft 474 kts 16°
2026-04-27 10:41 8.71937 0.76997 33955 ft 472 kts 16°
2026-04-27 10:42 8.75096 0.77929 34142 ft 472 kts 16°
2026-04-27 10:42 8.78247 0.78862 34298 ft 472 kts 16°
2026-04-27 10:42 8.81356 0.79789 34443 ft 472 kts 16°
2026-04-27 10:42 8.84505 0.80733 34630 ft 471 kts 16°
2026-04-27 10:43 8.87648 0.81678 34796 ft 470 kts 16°
2026-04-27 10:43 8.90782 0.82621 34968 ft 470 kts 16°
2026-04-27 10:43 8.97056 0.84502 35002 ft 469 kts 16°
2026-04-27 10:44 9.03304 0.86383 34982 ft 469 kts 16°
2026-04-27 10:44 9.09577 0.88264 34977 ft 469 kts 16°
2026-04-27 10:45 9.15864 0.90153 34975 ft 471 kts 16°
2026-04-27 10:45 9.22177 0.92053 34973 ft 471 kts 16°
2026-04-27 10:46 9.28448 0.93940 34974 ft 471 kts 16°
2026-04-27 10:46 9.34759 0.95837 34973 ft 471 kts 16°
2026-04-27 10:47 9.41060 0.97737 34968 ft 471 kts 16°
2026-04-27 10:47 9.47152 1.00086 34979 ft 471 kts 31°
2026-04-27 10:48 9.52302 1.04193 35010 ft 470 kts 40°
2026-04-27 10:48 9.57293 1.08497 35031 ft 470 kts 39°
2026-04-27 10:49 9.62358 1.12721 35052 ft 471 kts 39°
2026-04-27 10:49 9.67415 1.16908 35066 ft 472 kts 39°
2026-04-27 10:50 9.72504 1.21123 35065 ft 472 kts 39°
2026-04-27 10:50 9.77549 1.25323 35054 ft 472 kts 39°
2026-04-27 10:51 9.82617 1.29554 35032 ft 472 kts 39°
2026-04-27 10:51 9.87684 1.33759 34970 ft 469 kts 39°
2026-04-27 10:52 9.92755 1.37946 34960 ft 469 kts 39°
2026-04-27 10:52 9.97814 1.42145 34959 ft 469 kts 39°
2026-04-27 10:53 10.05369 1.48430 34962 ft 470 kts 39°
2026-04-27 10:54 10.10423 1.52634 34963 ft 469 kts 39°
2026-04-27 10:54 10.15487 1.56850 34962 ft 470 kts 39°
2026-04-27 10:55 10.20509 1.61033 34959 ft 469 kts 39°
2026-04-27 10:55 10.25587 1.65267 34958 ft 469 kts 39°
2026-04-27 10:56 10.30613 1.69455 34947 ft 469 kts 39°
2026-04-27 10:56 10.35665 1.73666 34946 ft 469 kts 39°
2026-04-27 10:57 10.40725 1.77882 34950 ft 470 kts 39°
2026-04-27 10:57 10.45784 1.82103 34944 ft 470 kts 39°
2026-04-27 10:58 10.50805 1.86295 34938 ft 470 kts 39°
2026-04-27 10:58 10.55870 1.90523 34938 ft 470 kts 39°
2026-04-27 10:59 10.60920 1.94743 34933 ft 469 kts 39°
2026-04-27 10:59 10.65930 1.98932 34931 ft 469 kts 39°
2026-04-27 11:00 10.73489 2.05258 34929 ft 470 kts 39°
2026-04-27 11:00 10.78536 2.09485 34932 ft 470 kts 39°
2026-04-27 11:01 10.83584 2.13706 34931 ft 469 kts 39°
2026-04-27 11:01 10.88622 2.17929 34929 ft 469 kts 39°
2026-04-27 11:02 10.93636 2.22130 34930 ft 469 kts 39°
2026-04-27 11:02 10.98691 2.26334 34928 ft 469 kts 36°
2026-04-27 11:03 11.01471 2.28080 34927 ft 470 kts 25°
2026-04-27 11:03 11.04456 2.29442 34932 ft 468 kts 22°
2026-04-27 11:03 11.10435 2.32007 34932 ft 469 kts 22°
2026-04-27 11:04 11.16423 2.34700 34932 ft 469 kts 23°
2026-04-27 11:04 11.22397 2.37431 34932 ft 469 kts 23°
2026-04-27 11:05 11.28336 2.40142 34932 ft 469 kts 23°
2026-04-27 11:05 11.34304 2.42872 34936 ft 469 kts 23°
2026-04-27 11:06 11.40279 2.45599 34935 ft 469 kts 23°
2026-04-27 11:06 11.46251 2.48331 34938 ft 469 kts 23°
2026-04-27 11:07 11.52178 2.51038 34938 ft 469 kts 23°
2026-04-27 11:07 11.58148 2.53769 34938 ft 469 kts 23°
2026-04-27 11:08 11.64114 2.56500 34940 ft 469 kts 23°
2026-04-27 11:08 11.70055 2.59221 34941 ft 472 kts 23°
2026-04-27 11:09 11.76052 2.61970 34944 ft 472 kts 23°
2026-04-27 11:09 11.82044 2.64718 34943 ft 472 kts 23°
2026-04-27 11:10 11.88050 2.67471 34943 ft 472 kts 23°
2026-04-27 11:10 11.94044 2.70219 34947 ft 472 kts 23°
2026-04-27 11:11 12.00031 2.72988 34944 ft 472 kts 24°
2026-04-27 11:11 12.05979 2.75733 34943 ft 471 kts 23°
2026-04-27 11:12 12.11967 2.78489 34947 ft 471 kts 23°
2026-04-27 11:12 12.17947 2.81238 34947 ft 471 kts 23°
2026-04-27 11:13 12.23939 2.83996 34947 ft 472 kts 23°
2026-04-27 11:13 12.29899 2.86734 34948 ft 472 kts 23°
2026-04-27 11:14 12.35890 2.89489 34947 ft 472 kts 23°
2026-04-27 11:14 12.41883 2.92249 34946 ft 472 kts 24°
2026-04-27 11:15 12.47892 2.95012 34950 ft 472 kts 24°
2026-04-27 11:15 12.53859 2.97756 34950 ft 472 kts 24°
2026-04-27 11:16 12.59859 3.00513 34948 ft 472 kts 24°
2026-04-27 11:16 12.65853 3.03285 34950 ft 472 kts 24°
2026-04-27 11:17 12.71846 3.06052 34949 ft 472 kts 23°
2026-04-27 11:17 12.77849 3.08827 34951 ft 474 kts 24°
2026-04-27 11:18 12.83863 3.11623 34953 ft 475 kts 24°
2026-04-27 11:18 12.89852 3.14389 34953 ft 475 kts 23°
2026-04-27 11:19 12.95886 3.17167 34955 ft 474 kts 24°
2026-04-27 11:19 13.01916 3.19954 34956 ft 474 kts 24°
2026-04-27 11:20 13.07898 3.22729 34956 ft 475 kts 24°
2026-04-27 11:20 13.13929 3.25535 34957 ft 476 kts 23°
2026-04-27 11:21 13.18956 3.27874 34954 ft 476 kts 23°
2026-04-27 11:21 13.24998 3.30667 34953 ft 476 kts 23°
2026-04-27 11:22 13.31048 3.33467 34953 ft 476 kts 23°
2026-04-27 11:22 13.37056 3.36256 34956 ft 476 kts 23°
2026-04-27 11:23 13.43093 3.39063 34953 ft 476 kts 23°
2026-04-27 11:23 13.49141 3.41875 34953 ft 476 kts 23°
2026-04-27 11:24 13.55141 3.44668 34952 ft 476 kts 23°
2026-04-27 11:24 13.61218 3.47422 34953 ft 476 kts 22°
2026-04-27 11:25 13.67298 3.50139 34947 ft 476 kts 22°
2026-04-27 11:25 13.73379 3.52869 34952 ft 477 kts 22°
2026-04-27 11:26 13.79451 3.55606 34948 ft 476 kts 22°
2026-04-27 11:26 13.85489 3.58321 34949 ft 476 kts 22°
2026-04-27 11:27 13.91551 3.61050 34939 ft 475 kts 22°
2026-04-27 11:27 13.97618 3.63784 34939 ft 475 kts 22°
2026-04-27 11:28 14.03688 3.66521 34942 ft 475 kts 22°
2026-04-27 11:28 14.09747 3.69258 34937 ft 475 kts 22°
2026-04-27 11:29 14.15779 3.71980 34936 ft 476 kts 22°
2026-04-27 11:29 14.21845 3.74720 34938 ft 476 kts 22°
2026-04-27 11:30 14.27931 3.77470 34935 ft 477 kts 22°
2026-04-27 11:30 14.33974 3.80202 34932 ft 476 kts 22°
2026-04-27 11:31 14.40045 3.82949 34923 ft 476 kts 22°
2026-04-27 11:31 14.46120 3.85701 34924 ft 476 kts 22°
2026-04-27 11:32 14.52197 3.88458 34921 ft 477 kts 22°
2026-04-27 11:32 14.58235 3.91196 34921 ft 477 kts 22°
2026-04-27 11:33 14.64314 3.93950 34913 ft 477 kts 22°
2026-04-27 11:33 14.70394 3.96712 34914 ft 477 kts 22°
2026-04-27 11:34 14.76437 3.99459 34912 ft 476 kts 22°
2026-04-27 11:34 14.82514 4.02218 34912 ft 476 kts 22°
2026-04-27 11:35 14.88589 4.04973 34914 ft 477 kts 22°
2026-04-27 11:35 14.94631 4.07725 34902 ft 477 kts 22°
2026-04-27 11:36 15.00719 4.10499 34905 ft 477 kts 22°
2026-04-27 11:36 15.06808 4.13275 34902 ft 477 kts 22°
2026-04-27 11:37 15.12856 4.16030 34903 ft 477 kts 22°
2026-04-27 11:37 15.18943 4.18807 34900 ft 477 kts 22°
2026-04-27 11:38 15.25014 4.21577 34907 ft 477 kts 22°
2026-04-27 11:38 15.31103 4.24358 34904 ft 479 kts 21°
2026-04-27 11:39 15.37166 4.27130 34903 ft 478 kts 21°
2026-04-27 11:39 15.43270 4.29919 34902 ft 478 kts 21°
2026-04-27 11:40 15.49362 4.32708 34901 ft 478 kts 21°
2026-04-27 11:40 15.55456 4.35493 34900 ft 478 kts 21°
2026-04-27 11:41 15.61514 4.38270 34896 ft 480 kts 21°
2026-04-27 11:41 15.67656 4.41085 34896 ft 481 kts 21°
2026-04-27 11:42 15.73744 4.43882 34894 ft 481 kts 21°
2026-04-27 11:42 15.79871 4.46699 34892 ft 481 kts 21°
2026-04-27 11:43 15.86008 4.49525 34892 ft 481 kts 21°
2026-04-27 11:43 15.92139 4.52343 34892 ft 481 kts 21°
2026-04-27 11:44 15.98239 4.55151 34894 ft 484 kts 21°
2026-04-27 11:44 16.04406 4.58002 34891 ft 485 kts 23°
2026-04-27 11:45 16.09267 4.60941 34890 ft 486 kts 30°
2026-04-27 11:45 16.15965 4.65234 34888 ft 486 kts 29°
2026-04-27 11:46 16.21777 4.68843 34885 ft 486 kts 28°
2026-04-27 11:46 16.27597 4.72441 34888 ft 486 kts 28°
2026-04-27 11:47 16.33416 4.76050 34888 ft 488 kts 28°
2026-04-27 11:47 16.39228 4.79658 34888 ft 488 kts 28°
2026-04-27 11:48 16.45075 4.83286 34877 ft 488 kts 28°
2026-04-27 11:48 16.50916 4.86916 34882 ft 488 kts 28°
2026-04-27 11:49 16.56724 4.90519 34886 ft 489 kts 28°
2026-04-27 11:49 16.62573 4.94150 34882 ft 488 kts 28°
2026-04-27 11:50 16.68412 4.97789 34885 ft 488 kts 28°
2026-04-27 11:50 16.74247 5.01424 34880 ft 488 kts 28°
2026-04-27 11:51 16.80039 5.05039 34884 ft 488 kts 28°
2026-04-27 11:52 16.88790 5.10495 34878 ft 488 kts 28°
2026-04-27 11:52 16.94634 5.14142 34878 ft 488 kts 28°
2026-04-27 11:53 17.00436 5.17762 34876 ft 490 kts 28°
2026-04-27 11:53 17.06294 5.21425 34880 ft 490 kts 28°
2026-04-27 11:54 17.12150 5.25091 34875 ft 490 kts 28°
2026-04-27 11:54 17.17983 5.28740 34876 ft 490 kts 28°
2026-04-27 11:55 17.23844 5.32414 34874 ft 490 kts 28°
2026-04-27 11:55 17.29689 5.36083 34870 ft 488 kts 28°
2026-04-27 11:56 17.35490 5.39731 34879 ft 491 kts 28°
2026-04-27 11:56 17.41367 5.43421 34870 ft 492 kts 28°
2026-04-27 11:57 17.47243 5.47111 34867 ft 492 kts 28°
2026-04-27 11:57 17.53082 5.50786 34865 ft 492 kts 28°
2026-04-27 11:58 17.58968 5.54485 34868 ft 492 kts 28°
2026-04-27 11:58 17.64832 5.58181 34868 ft 492 kts 28°
2026-04-27 11:59 17.70671 5.61859 34865 ft 493 kts 28°
2026-04-27 11:59 17.76556 5.65577 34864 ft 494 kts 28°
2026-04-27 12:00 17.82488 5.69185 34853 ft 491 kts 21°
2026-04-27 12:00 17.88871 5.71711 34857 ft 487 kts 15°
2026-04-27 12:01 17.95275 5.74054 34853 ft 487 kts 16°
2026-04-27 12:01 18.01601 5.76499 34852 ft 487 kts 17°
2026-04-27 12:02 18.07961 5.78997 34852 ft 487 kts 17°
2026-04-27 12:02 18.14323 5.81503 34853 ft 487 kts 17°
2026-04-27 12:03 18.20641 5.83988 34852 ft 487 kts 17°
2026-04-27 12:03 18.26995 5.86482 34852 ft 487 kts 17°
2026-04-27 12:04 18.33355 5.88984 34857 ft 487 kts 17°
2026-04-27 12:04 18.39715 5.91487 34851 ft 489 kts 17°
2026-04-27 12:05 18.46085 5.93992 34854 ft 489 kts 17°
2026-04-27 12:05 18.52414 5.96487 34852 ft 488 kts 17°
2026-04-27 12:06 18.58787 5.99003 34850 ft 489 kts 17°
2026-04-27 12:06 18.65158 6.01516 34851 ft 489 kts 17°
2026-04-27 12:07 18.71548 6.04040 34857 ft 490 kts 17°
2026-04-27 12:07 18.77904 6.06556 34846 ft 491 kts 17°
2026-04-27 12:08 18.84309 6.09084 34852 ft 490 kts 17°
2026-04-27 12:08 18.90694 6.11604 34849 ft 490 kts 17°
2026-04-27 12:09 18.97088 6.14136 34849 ft 490 kts 17°
2026-04-27 12:09 19.03432 6.16655 34856 ft 490 kts 16°
2026-04-27 12:10 19.09836 6.19198 34849 ft 491 kts 16°
2026-04-27 12:10 19.16245 6.21740 34850 ft 491 kts 16°
2026-04-27 12:11 19.22618 6.24280 34854 ft 491 kts 17°
2026-04-27 12:11 19.29035 6.26839 34855 ft 491 kts 16°
2026-04-27 12:12 19.35434 6.29385 34859 ft 491 kts 16°
2026-04-27 12:12 19.41819 6.31934 34858 ft 493 kts 16°
2026-04-27 12:13 19.48234 6.34497 34852 ft 493 kts 16°
2026-04-27 12:13 19.53578 6.36633 34849 ft 493 kts 16°
2026-04-27 12:14 19.60004 6.39195 34853 ft 493 kts 16°
2026-04-27 12:14 19.66419 6.41757 34858 ft 493 kts 16°
2026-04-27 12:15 19.72840 6.44333 34864 ft 494 kts 16°
2026-04-27 12:15 19.79266 6.46901 34859 ft 494 kts 15°
2026-04-27 12:16 19.85699 6.49472 34852 ft 493 kts 15°
2026-04-27 12:16 19.92117 6.52048 34854 ft 493 kts 15°
2026-04-27 12:17 19.98500 6.54613 34864 ft 493 kts 15°
2026-04-27 12:17 20.04966 6.57210 34860 ft 493 kts 15°
2026-04-27 12:18 20.11494 6.58765 34854 ft 476 kts 354°
2026-04-27 12:18 20.14755 6.58481 34858 ft 465 kts 342°
2026-04-27 12:18 20.17826 6.57552 34859 ft 456 kts 332°
2026-04-27 12:19 20.23676 6.54961 34863 ft 454 kts 330°
2026-04-27 12:19 20.29495 6.52414 34857 ft 455 kts 331°
2026-04-27 12:20 20.35417 6.49915 34876 ft 458 kts 332°
2026-04-27 12:20 20.41347 6.47426 34862 ft 456 kts 332°
2026-04-27 12:21 20.47208 6.44911 34861 ft 457 kts 331°
2026-04-27 12:21 20.53120 6.42407 34862 ft 457 kts 332°
2026-04-27 12:22 20.59068 6.39926 34859 ft 457 kts 332°
2026-04-27 12:22 20.64948 6.37424 34863 ft 457 kts 331°
2026-04-27 12:23 20.70848 6.34876 34878 ft 456 kts 331°
2026-04-27 12:23 20.76751 6.32369 34872 ft 455 kts 331°
2026-04-27 12:24 20.82608 6.29871 34872 ft 455 kts 331°
2026-04-27 12:24 20.88501 6.27367 34871 ft 456 kts 331°
2026-04-27 12:25 20.94404 6.24873 34875 ft 455 kts 331°
2026-04-27 12:25 21.00297 6.22358 34873 ft 455 kts 331°
2026-04-27 12:26 21.06181 6.19843 34884 ft 455 kts 330°
2026-04-27 12:26 21.12041 6.17392 34879 ft 455 kts 331°
2026-04-27 12:27 21.17920 6.14886 34878 ft 454 kts 330°
2026-04-27 12:27 21.23801 6.12382 34880 ft 453 kts 330°
2026-04-27 12:28 21.29658 6.09896 34884 ft 452 kts 330°
2026-04-27 12:28 21.35526 6.07402 34879 ft 452 kts 330°
2026-04-27 12:29 21.41335 6.04905 34879 ft 453 kts 330°
2026-04-27 12:29 21.47192 6.02405 34884 ft 453 kts 330°
2026-04-27 12:30 21.53045 5.99893 34886 ft 452 kts 330°
2026-04-27 12:30 21.58889 5.97366 34886 ft 453 kts 330°
2026-04-27 12:31 21.64746 5.94856 34885 ft 452 kts 330°
2026-04-27 12:31 21.70562 5.92358 34896 ft 453 kts 330°
2026-04-27 12:32 21.76406 5.89846 34889 ft 452 kts 330°
2026-04-27 12:32 21.82255 5.87317 34886 ft 452 kts 330°
2026-04-27 12:33 21.88105 5.84800 34885 ft 452 kts 330°
2026-04-27 12:33 21.93919 5.82290 34887 ft 452 kts 330°
2026-04-27 12:34 21.99770 5.79760 34898 ft 452 kts 330°
2026-04-27 12:34 22.05621 5.77238 34906 ft 452 kts 330°
2026-04-27 12:35 22.11471 5.74711 34902 ft 453 kts 330°
2026-04-27 12:35 22.17317 5.72185 34903 ft 453 kts 330°
2026-04-27 12:36 22.23178 5.69644 34912 ft 454 kts 330°
2026-04-27 12:36 22.29014 5.67109 34915 ft 454 kts 330°
2026-04-27 12:37 22.34898 5.64554 34915 ft 455 kts 329°
2026-04-27 12:37 22.40729 5.62001 34924 ft 454 kts 329°
2026-04-27 12:38 22.46580 5.59436 34926 ft 454 kts 329°
2026-04-27 12:38 22.52448 5.56878 34986 ft 454 kts 329°
2026-04-27 12:39 22.58326 5.54341 35060 ft 454 kts 329°
2026-04-27 12:39 22.64203 5.51784 35135 ft 455 kts 329°
2026-04-27 12:40 22.70037 5.49252 35224 ft 454 kts 329°
2026-04-27 12:40 22.75905 5.46697 35236 ft 452 kts 329°
2026-04-27 12:41 22.81797 5.44234 35229 ft 458 kts 333°
2026-04-27 12:41 22.87929 5.42241 35232 ft 460 kts 335°
2026-04-27 12:42 22.94037 5.40297 35164 ft 460 kts 334°
2026-04-27 12:42 23.00181 5.38298 35106 ft 460 kts 334°
2026-04-27 12:43 23.06314 5.36329 35065 ft 459 kts 334°
2026-04-27 12:43 23.12429 5.34356 34999 ft 458 kts 334°
2026-04-27 12:44 23.18493 5.32372 34949 ft 458 kts 334°
2026-04-27 12:44 23.24611 5.30366 34942 ft 458 kts 334°
2026-04-27 12:45 23.30718 5.28342 34938 ft 459 kts 334°
2026-04-27 12:45 23.36853 5.26380 34951 ft 458 kts 334°
2026-04-27 12:46 23.42914 5.24409 34927 ft 457 kts 334°
2026-04-27 12:46 23.48999 5.22374 34925 ft 457 kts 334°
2026-04-27 12:47 23.55097 5.20365 34914 ft 457 kts 334°
2026-04-27 12:47 23.61175 5.18400 34914 ft 458 kts 334°
2026-04-27 12:48 23.67281 5.16403 34918 ft 457 kts 334°
2026-04-27 12:48 23.73373 5.14413 34900 ft 456 kts 334°
2026-04-27 12:49 23.79445 5.12388 34899 ft 456 kts 334°
2026-04-27 12:49 23.85501 5.10414 34900 ft 457 kts 334°
2026-04-27 12:50 23.91599 5.08433 34895 ft 457 kts 334°
2026-04-27 12:50 23.97682 5.06419 34899 ft 456 kts 333°
2026-04-27 12:51 24.03764 5.04415 34915 ft 456 kts 334°
2026-04-27 12:51 24.09852 5.02408 34897 ft 456 kts 334°
2026-04-27 12:52 24.15927 5.00388 34892 ft 456 kts 334°
2026-04-27 12:52 24.21992 4.98385 34894 ft 457 kts 334°
2026-04-27 12:53 24.31136 4.95370 34922 ft 456 kts 334°
2026-04-27 12:53 24.37232 4.93346 34904 ft 458 kts 334°
2026-04-27 12:54 24.43337 4.91320 34901 ft 458 kts 334°
2026-04-27 12:54 24.49412 4.89299 34905 ft 458 kts 334°
2026-04-27 12:55 24.55526 4.87266 34894 ft 458 kts 334°
2026-04-27 12:55 24.61645 4.85228 34903 ft 459 kts 334°
2026-04-27 12:56 24.67717 4.83206 34898 ft 458 kts 334°
2026-04-27 12:56 24.73830 4.81165 34898 ft 458 kts 334°
2026-04-27 12:57 24.79941 4.79121 34902 ft 458 kts 334°
2026-04-27 12:57 24.86010 4.77092 34904 ft 458 kts 333°
2026-04-27 12:58 24.92125 4.75042 34902 ft 458 kts 333°
2026-04-27 12:58 24.98241 4.72994 34916 ft 457 kts 333°
2026-04-27 12:59 25.04300 4.70963 34902 ft 457 kts 333°
2026-04-27 12:59 25.10398 4.68915 34916 ft 457 kts 333°
2026-04-27 13:00 25.16489 4.66867 34916 ft 457 kts 333°
2026-04-27 13:00 25.22579 4.64818 34932 ft 457 kts 333°
2026-04-27 13:01 25.28635 4.62773 34938 ft 457 kts 333°
2026-04-27 13:01 25.34725 4.60720 34944 ft 456 kts 333°
2026-04-27 13:02 25.39783 4.59015 34939 ft 456 kts 333°
2026-04-27 13:02 25.46852 4.56628 34952 ft 458 kts 333°
2026-04-27 13:03 25.51921 4.54912 34958 ft 458 kts 333°
2026-04-27 13:03 25.58018 4.52845 34973 ft 458 kts 333°
2026-04-27 13:04 25.64124 4.50776 34957 ft 457 kts 333°
2026-04-27 13:04 25.70228 4.48702 34956 ft 458 kts 333°
2026-04-27 13:05 25.76288 4.46643 34956 ft 458 kts 333°
2026-04-27 13:05 25.82385 4.44569 34950 ft 458 kts 333°
2026-04-27 13:06 25.88505 4.42487 34973 ft 458 kts 333°
2026-04-27 13:06 25.94560 4.40425 34935 ft 457 kts 333°
2026-04-27 13:07 26.00654 4.38346 34920 ft 457 kts 333°
2026-04-27 13:07 26.06727 4.36266 34923 ft 456 kts 333°
2026-04-27 13:08 26.12764 4.34192 34918 ft 456 kts 333°
2026-04-27 13:08 26.18833 4.32100 34916 ft 457 kts 333°
2026-04-27 13:09 26.24907 4.30006 34914 ft 455 kts 333°
2026-04-27 13:09 26.30963 4.27923 34907 ft 455 kts 333°
2026-04-27 13:10 26.37016 4.25833 34897 ft 455 kts 333°
2026-04-27 13:10 26.43078 4.23752 34898 ft 455 kts 333°
2026-04-27 13:11 26.49110 4.21676 34903 ft 455 kts 333°
2026-04-27 13:11 26.55166 4.19598 34906 ft 453 kts 333°
2026-04-27 13:12 26.61143 4.17538 34903 ft 452 kts 333°
2026-04-27 13:12 26.67166 4.15468 34900 ft 452 kts 333°
2026-04-27 13:13 26.73187 4.13398 34909 ft 452 kts 333°
2026-04-27 13:13 26.79162 4.11331 34906 ft 450 kts 333°
2026-04-27 13:14 26.85143 4.09259 34920 ft 449 kts 333°
2026-04-27 13:14 26.91120 4.07184 34915 ft 448 kts 333°
2026-04-27 13:15 26.97080 4.05120 34911 ft 449 kts 333°
2026-04-27 13:15 27.03023 4.03052 35226 ft 449 kts 333°
2026-04-27 13:16 27.06009 4.02021 35492 ft 448 kts 333°
2026-04-27 13:16 27.08986 4.00993 35728 ft 447 kts 332°
2026-04-27 13:16 27.11964 3.99963 35934 ft 447 kts 332°
2026-04-27 13:16 27.14943 3.98932 35960 ft 446 kts 332°
2026-04-27 13:17 27.20836 3.96880 35930 ft 446 kts 332°
2026-04-27 13:17 27.26765 3.94812 35917 ft 445 kts 332°
2026-04-27 13:18 27.32681 3.92729 35918 ft 445 kts 332°
2026-04-27 13:18 27.38602 3.90626 35915 ft 446 kts 332°
2026-04-27 13:19 27.44496 3.88573 35934 ft 445 kts 332°
2026-04-27 13:19 27.50406 3.86505 35926 ft 444 kts 332°
2026-04-27 13:20 27.56322 3.84440 35920 ft 444 kts 332°
2026-04-27 13:20 27.62220 3.82345 35924 ft 444 kts 332°
2026-04-27 13:21 27.68133 3.80256 35928 ft 445 kts 332°
2026-04-27 13:21 27.74028 3.78176 35923 ft 447 kts 332°
2026-04-27 13:22 27.79990 3.76084 35925 ft 448 kts 332°
2026-04-27 13:22 27.85951 3.73992 35924 ft 448 kts 332°
2026-04-27 13:23 27.91865 3.71910 35925 ft 448 kts 332°
2026-04-27 13:23 27.97824 3.69805 35922 ft 448 kts 332°
2026-04-27 13:24 28.03783 3.67693 35932 ft 448 kts 332°
2026-04-27 13:24 28.09720 3.65557 35922 ft 447 kts 332°
2026-04-27 13:25 28.15617 3.63442 35913 ft 447 kts 332°
2026-04-27 13:25 28.21575 3.61350 35915 ft 447 kts 333°
2026-04-27 13:26 28.27520 3.59243 35905 ft 447 kts 332°
2026-04-27 13:26 28.33448 3.57118 35932 ft 447 kts 332°
2026-04-27 13:27 28.39350 3.55024 35903 ft 447 kts 332°
2026-04-27 13:27 28.45299 3.52910 35897 ft 447 kts 332°
2026-04-27 13:28 28.51258 3.50828 35890 ft 450 kts 334°
2026-04-27 13:28 28.57309 3.48927 35885 ft 450 kts 334°
2026-04-27 13:29 28.63359 3.47054 35893 ft 450 kts 334°
2026-04-27 13:29 28.69356 3.45192 35879 ft 448 kts 334°
2026-04-27 13:30 28.75380 3.43301 35873 ft 448 kts 334°
2026-04-27 13:30 28.81410 3.41440 35872 ft 449 kts 335°
2026-04-27 13:31 28.87398 3.39578 35865 ft 449 kts 334°
2026-04-27 13:31 28.93420 3.37700 35877 ft 448 kts 335°
2026-04-27 13:32 28.99444 3.35821 35860 ft 448 kts 334°
2026-04-27 13:32 29.05464 3.33931 35862 ft 448 kts 334°
2026-04-27 13:33 29.11493 3.32043 35859 ft 448 kts 335°
2026-04-27 13:33 29.17517 3.30157 35859 ft 448 kts 335°
2026-04-27 13:34 29.23504 3.28278 35865 ft 448 kts 335°
2026-04-27 13:34 29.29522 3.26387 35858 ft 448 kts 335°
2026-04-27 13:35 29.35545 3.24494 35857 ft 448 kts 335°
2026-04-27 13:35 29.41561 3.22597 35853 ft 448 kts 335°
2026-04-27 13:36 29.47540 3.20707 35860 ft 448 kts 335°
2026-04-27 13:36 29.53565 3.18804 35872 ft 448 kts 335°
2026-04-27 13:37 29.59591 3.16900 35859 ft 448 kts 335°
2026-04-27 13:37 29.65570 3.15006 35860 ft 448 kts 335°
2026-04-27 13:38 29.71585 3.13098 35865 ft 448 kts 335°
2026-04-27 13:38 29.77613 3.11187 35867 ft 448 kts 335°
2026-04-27 13:39 29.83598 3.09285 35869 ft 448 kts 335°
2026-04-27 13:39 29.89627 3.07366 35864 ft 449 kts 335°
2026-04-27 13:40 29.95657 3.05449 35866 ft 449 kts 335°
2026-04-27 13:40 30.01651 3.03533 35865 ft 450 kts 335°
2026-04-27 13:41 30.07693 3.01601 35863 ft 450 kts 335°
2026-04-27 13:41 30.13729 2.99670 35875 ft 450 kts 335°
2026-04-27 13:42 30.19767 2.97736 35868 ft 450 kts 335°
2026-04-27 13:42 30.25779 2.95810 35881 ft 450 kts 335°
2026-04-27 13:43 30.31825 2.93870 35906 ft 450 kts 335°
2026-04-27 13:43 30.37858 2.91930 35944 ft 450 kts 335°
2026-04-27 13:44 30.43902 2.89984 35951 ft 450 kts 335°
2026-04-27 13:44 30.49901 2.88053 35965 ft 450 kts 335°
2026-04-27 13:45 30.55635 2.85488 35962 ft 430 kts 319°
2026-04-27 13:45 30.57975 2.83403 35963 ft 416 kts 308°
2026-04-27 13:45 30.59923 2.80962 35882 ft 411 kts 302°
2026-04-27 13:46 30.63588 2.75927 35879 ft 411 kts 303°
2026-04-27 13:46 30.67353 2.70896 35875 ft 414 kts 303°
2026-04-27 13:47 30.71181 2.65860 35884 ft 415 kts 303°
2026-04-27 13:47 30.74978 2.60837 35877 ft 416 kts 303°
2026-04-27 13:48 30.78793 2.55777 35880 ft 416 kts 303°
2026-04-27 13:48 30.82628 2.50720 35881 ft 416 kts 303°
2026-04-27 13:49 30.86462 2.45671 35878 ft 415 kts 303°
2026-04-27 13:49 30.90265 2.40663 35880 ft 415 kts 303°
2026-04-27 13:50 30.94063 2.35588 35896 ft 415 kts 303°
2026-04-27 13:50 30.97861 2.30509 35882 ft 416 kts 303°
2026-04-27 13:51 31.01044 2.26285 35885 ft 417 kts 303°
2026-04-27 13:51 31.04858 2.21170 35881 ft 418 kts 303°
2026-04-27 13:52 31.08717 2.16068 35882 ft 419 kts 304°
2026-04-27 13:52 31.12566 2.11010 35886 ft 418 kts 304°
2026-04-27 13:53 31.18320 2.03345 35889 ft 418 kts 303°
2026-04-27 13:54 31.22106 1.98253 35885 ft 418 kts 303°
2026-04-27 13:54 31.25935 1.93127 35892 ft 419 kts 304°
2026-04-27 13:55 31.29767 1.87987 35885 ft 420 kts 303°
2026-04-27 13:55 31.33611 1.82812 35890 ft 421 kts 304°
2026-04-27 13:56 31.37459 1.77632 35892 ft 421 kts 304°
2026-04-27 13:56 31.41276 1.72485 35894 ft 421 kts 304°
2026-04-27 13:57 31.45124 1.67303 35896 ft 421 kts 304°
2026-04-27 13:57 31.48979 1.62108 35899 ft 421 kts 303°
2026-04-27 13:58 31.52790 1.56938 35914 ft 421 kts 304°
2026-04-27 13:58 31.56620 1.51740 35904 ft 421 kts 304°
2026-04-27 13:59 31.60934 1.46936 35898 ft 431 kts 313°
2026-04-27 13:59 31.65543 1.42413 35897 ft 431 kts 312°
2026-04-27 14:00 31.70048 1.37837 35898 ft 430 kts 311°
2026-04-27 14:00 31.74562 1.33201 35903 ft 430 kts 311°
2026-04-27 14:01 31.79063 1.28558 35902 ft 429 kts 311°
2026-04-27 14:01 31.83556 1.23924 35904 ft 429 kts 311°
2026-04-27 14:02 31.88005 1.19302 35907 ft 427 kts 309°
2026-04-27 14:02 31.91913 1.14140 35913 ft 421 kts 303°
2026-04-27 14:03 31.95737 1.08845 35904 ft 424 kts 304°
2026-04-27 14:03 31.99600 1.03575 35908 ft 425 kts 304°
2026-04-27 14:04 32.03451 0.98346 35908 ft 425 kts 304°
2026-04-27 14:04 32.07324 0.93067 35933 ft 425 kts 304°
2026-04-27 14:05 32.11199 0.87791 35921 ft 426 kts 304°
2026-04-27 14:05 32.15079 0.82507 35918 ft 426 kts 305°
2026-04-27 14:06 32.18953 0.77216 35921 ft 426 kts 304°
2026-04-27 14:06 32.22834 0.71903 35931 ft 427 kts 304°
2026-04-27 14:07 32.26724 0.66587 35929 ft 428 kts 304°
2026-04-27 14:07 32.30611 0.61264 35932 ft 428 kts 304°
2026-04-27 14:08 32.34489 0.55927 35936 ft 427 kts 304°
2026-04-27 14:08 32.38345 0.50566 35939 ft 428 kts 304°
2026-04-27 14:09 32.42192 0.45253 35944 ft 428 kts 304°
2026-04-27 14:09 32.46068 0.39888 35941 ft 428 kts 304°
2026-04-27 14:10 32.49958 0.34522 35945 ft 430 kts 305°
2026-04-27 14:10 32.53859 0.29123 35952 ft 430 kts 304°
2026-04-27 14:11 32.57730 0.23754 35955 ft 430 kts 304°
2026-04-27 14:11 32.61619 0.18353 35953 ft 430 kts 304°
2026-04-27 14:12 32.65513 0.12944 35975 ft 431 kts 305°
2026-04-27 14:12 32.69419 0.07524 35964 ft 431 kts 304°
2026-04-27 14:13 32.73304 0.02087 35978 ft 431 kts 304°
2026-04-27 14:13 32.77158 -0.03312 35991 ft 432 kts 304°
2026-04-27 14:14 32.81056 -0.08768 35990 ft 432 kts 305°
2026-04-27 14:14 32.84984 -0.14179 35989 ft 432 kts 305°
2026-04-27 14:15 32.88895 -0.19613 35998 ft 431 kts 304°
2026-04-27 14:15 32.92753 -0.25031 36004 ft 431 kts 304°
2026-04-27 14:16 32.96633 -0.30480 35996 ft 431 kts 304°
2026-04-27 14:16 33.00493 -0.35969 36001 ft 431 kts 304°
2026-04-27 14:17 33.04320 -0.41414 36001 ft 431 kts 304°
2026-04-27 14:17 33.08202 -0.46892 36007 ft 432 kts 305°
2026-04-27 14:18 33.12077 -0.52356 36020 ft 432 kts 304°
2026-04-27 14:18 33.15948 -0.57839 36023 ft 432 kts 305°
2026-04-27 14:19 33.19845 -0.63307 36021 ft 432 kts 305°
2026-04-27 14:19 33.23722 -0.68795 36018 ft 432 kts 304°
2026-04-27 14:20 33.27581 -0.74291 36021 ft 432 kts 304°
2026-04-27 14:20 33.31424 -0.79764 36020 ft 433 kts 304°
2026-04-27 14:21 33.35304 -0.85306 36014 ft 433 kts 304°
2026-04-27 14:21 33.39156 -0.90862 36012 ft 433 kts 304°
2026-04-27 14:22 33.43010 -0.96422 36010 ft 433 kts 304°
2026-04-27 14:22 33.46844 -1.01932 36008 ft 433 kts 304°
2026-04-27 14:23 33.50727 -1.07522 36005 ft 433 kts 304°
2026-04-27 14:23 33.54565 -1.13043 36006 ft 433 kts 304°
2026-04-27 14:24 33.58431 -1.18606 36008 ft 435 kts 304°
2026-04-27 14:24 33.62307 -1.24192 36003 ft 435 kts 304°
2026-04-27 14:25 33.66182 -1.29788 36002 ft 435 kts 304°
2026-04-27 14:25 33.70030 -1.35350 36006 ft 436 kts 304°
2026-04-27 14:26 33.73906 -1.40959 35999 ft 436 kts 304°
2026-04-27 14:26 33.77757 -1.46542 35996 ft 436 kts 304°
2026-04-27 14:27 33.81621 -1.52172 35990 ft 436 kts 304°
2026-04-27 14:27 33.85490 -1.57808 35997 ft 437 kts 304°
2026-04-27 14:28 33.89335 -1.63498 35993 ft 436 kts 302°
2026-04-27 14:28 33.92903 -1.69333 35983 ft 435 kts 301°
2026-04-27 14:29 33.96461 -1.75233 35988 ft 435 kts 301°
2026-04-27 14:29 34.00024 -1.81143 35975 ft 435 kts 301°
2026-04-27 14:30 34.03594 -1.87055 35979 ft 436 kts 301°
2026-04-27 14:30 34.07127 -1.92959 35982 ft 437 kts 301°
2026-04-27 14:31 34.10716 -1.98906 35978 ft 438 kts 301°
2026-04-27 14:31 34.14283 -2.04866 35980 ft 438 kts 301°
2026-04-27 14:32 34.17862 -2.10843 35973 ft 438 kts 301°
2026-04-27 14:32 34.21398 -2.16777 35972 ft 437 kts 300°
2026-04-27 14:33 34.24940 -2.22769 35969 ft 437 kts 300°
2026-04-27 14:33 34.28488 -2.28759 35967 ft 437 kts 301°
2026-04-27 14:34 34.32052 -2.34757 35962 ft 439 kts 301°
2026-04-27 14:34 34.35593 -2.40732 35964 ft 439 kts 301°
2026-04-27 14:35 34.39157 -2.46748 35964 ft 440 kts 301°
2026-04-27 14:35 34.42719 -2.52774 35965 ft 439 kts 301°
2026-04-27 14:36 34.46277 -2.58810 35972 ft 440 kts 301°
2026-04-27 14:36 34.49805 -2.64801 35964 ft 439 kts 301°
2026-04-27 14:37 34.53373 -2.70854 35972 ft 442 kts 301°
2026-04-27 14:37 34.56349 -2.75896 35969 ft 442 kts 301°
2026-04-27 14:38 34.59911 -2.81981 35969 ft 442 kts 300°
2026-04-27 14:38 34.63472 -2.88064 35979 ft 442 kts 301°
2026-04-27 14:39 34.67040 -2.94166 35979 ft 442 kts 300°
2026-04-27 14:39 34.70589 -3.00229 35994 ft 442 kts 301°
2026-04-27 14:40 34.74142 -3.06324 35997 ft 442 kts 301°
2026-04-27 14:40 34.77717 -3.12454 35990 ft 444 kts 301°
2026-04-27 14:41 34.81279 -3.18594 35996 ft 444 kts 301°
2026-04-27 14:41 34.84836 -3.24700 35995 ft 444 kts 301°
2026-04-27 14:42 34.88401 -3.30847 35995 ft 444 kts 300°
2026-04-27 14:42 34.91962 -3.37011 35990 ft 444 kts 301°
2026-04-27 14:43 34.95513 -3.43117 35995 ft 444 kts 301°
2026-04-27 14:43 34.99080 -3.49287 35993 ft 445 kts 301°
2026-04-27 14:44 35.02644 -3.55508 35989 ft 445 kts 301°
2026-04-27 14:44 35.06182 -3.61668 35986 ft 446 kts 301°
2026-04-27 14:45 35.09732 -3.67877 35984 ft 445 kts 301°
2026-04-27 14:45 35.13283 -3.74074 35983 ft 445 kts 301°
2026-04-27 14:46 35.16820 -3.80285 35991 ft 445 kts 300°
2026-04-27 14:46 35.19705 -3.86832 36002 ft 438 kts 285°
2026-04-27 14:47 35.21605 -3.93896 35995 ft 437 kts 284°
2026-04-27 14:47 35.23538 -4.00965 35991 ft 437 kts 285°
2026-04-27 14:48 35.25496 -4.07978 35989 ft 438 kts 285°
2026-04-27 14:48 35.28490 -4.18561 35989 ft 438 kts 285°
2026-04-27 14:49 35.30465 -4.25620 35989 ft 438 kts 285°
2026-04-27 14:49 35.32447 -4.32673 35994 ft 438 kts 285°
2026-04-27 14:50 35.34413 -4.39743 35994 ft 438 kts 285°
2026-04-27 14:50 35.36374 -4.46829 36003 ft 438 kts 285°
2026-04-27 14:51 35.38333 -4.53862 36004 ft 438 kts 285°
2026-04-27 14:51 35.40294 -4.60956 36007 ft 440 kts 285°
2026-04-27 14:52 35.42261 -4.68081 36010 ft 441 kts 285°
2026-04-27 14:52 35.44209 -4.75164 36014 ft 440 kts 285°
2026-04-27 14:53 35.46167 -4.82295 36011 ft 440 kts 285°
2026-04-27 14:53 35.48112 -4.89413 36017 ft 440 kts 285°
2026-04-27 14:54 35.50064 -4.96552 36025 ft 441 kts 285°
2026-04-27 14:54 35.52009 -5.03665 36015 ft 442 kts 285°
2026-04-27 14:55 35.53949 -5.10843 36004 ft 442 kts 284°
2026-04-27 14:55 35.55884 -5.18012 35997 ft 442 kts 285°
2026-04-27 14:56 35.57821 -5.25188 35993 ft 442 kts 284°
2026-04-27 14:56 35.59732 -5.32372 35992 ft 441 kts 283°
2026-04-27 14:57 35.61367 -5.39645 35996 ft 442 kts 281°
2026-04-27 14:57 35.62950 -5.46950 35994 ft 443 kts 281°
2026-04-27 14:58 35.64593 -5.54222 35979 ft 440 kts 282°
2026-04-27 14:58 35.66259 -5.61419 35966 ft 441 kts 282°
2026-04-27 14:59 35.67946 -5.68669 35893 ft 440 kts 282°
2026-04-27 14:59 35.69607 -5.75939 35885 ft 441 kts 281°
2026-04-27 15:00 35.71267 -5.83161 35888 ft 442 kts 281°
2026-04-27 15:00 35.72936 -5.90449 35889 ft 442 kts 282°
2026-04-27 15:01 35.74437 -5.97797 35873 ft 441 kts 279°
2026-04-27 15:01 35.75837 -6.05085 35873 ft 439 kts 279°
2026-04-27 15:02 35.77229 -6.12443 35874 ft 441 kts 279°
2026-04-27 15:02 35.78629 -6.19827 35867 ft 442 kts 278°
2026-04-27 15:03 35.80031 -6.27144 35864 ft 441 kts 278°
2026-04-27 15:03 35.81412 -6.34514 35864 ft 441 kts 278°
2026-04-27 15:04 35.82724 -6.41913 35864 ft 443 kts 278°
2026-04-27 15:04 35.84150 -6.49294 35869 ft 443 kts 280°
2026-04-27 15:05 35.85690 -6.56656 35875 ft 443 kts 280°
2026-04-27 15:05 35.87242 -6.63965 35894 ft 443 kts 281°
2026-04-27 15:06 35.88792 -6.71351 35899 ft 444 kts 280°
2026-04-27 15:06 35.90329 -6.78718 35900 ft 443 kts 280°
2026-04-27 15:07 35.91864 -6.86075 35913 ft 443 kts 281°
2026-04-27 15:07 35.93378 -6.93428 35904 ft 445 kts 281°
2026-04-27 15:08 35.94911 -7.00836 35909 ft 445 kts 281°
2026-04-27 15:08 35.96444 -7.08261 35908 ft 445 kts 280°
2026-04-27 15:09 35.97970 -7.15676 35909 ft 445 kts 281°
2026-04-27 15:09 35.99490 -7.23100 35918 ft 446 kts 281°
2026-04-27 15:10 36.00999 -7.30495 35914 ft 446 kts 281°
2026-04-27 15:10 36.03299 -7.37636 35916 ft 454 kts 300°
2026-04-27 15:11 36.05308 -7.40668 35917 ft 459 kts 313°
2026-04-27 15:11 36.07779 -7.43192 35919 ft 463 kts 320°
2026-04-27 15:11 36.13025 -7.47819 35924 ft 462 kts 321°
2026-04-27 15:12 36.18195 -7.52509 35926 ft 461 kts 320°
2026-04-27 15:12 36.23312 -7.57235 35928 ft 462 kts 320°
2026-04-27 15:13 36.28454 -7.61986 35937 ft 460 kts 321°
2026-04-27 15:13 36.33572 -7.66728 35934 ft 459 kts 320°
2026-04-27 15:14 36.38669 -7.71522 35926 ft 459 kts 320°
2026-04-27 15:14 36.43787 -7.76267 35940 ft 459 kts 321°
2026-04-27 15:15 36.48904 -7.81032 35934 ft 459 kts 320°
2026-04-27 15:15 36.53968 -7.85765 35939 ft 458 kts 321°
2026-04-27 15:16 36.59076 -7.90511 35939 ft 458 kts 321°
2026-04-27 15:16 36.64161 -7.95297 35942 ft 458 kts 321°
2026-04-27 15:17 36.69251 -8.00070 35943 ft 458 kts 321°
2026-04-27 15:17 36.74347 -8.04847 35947 ft 458 kts 321°
2026-04-27 15:18 36.79413 -8.09584 35948 ft 457 kts 321°
2026-04-27 15:18 36.84488 -8.14371 35948 ft 457 kts 320°
2026-04-27 15:19 36.89568 -8.19160 35941 ft 456 kts 321°
2026-04-27 15:19 36.94578 -8.23908 35937 ft 451 kts 320°
2026-04-27 15:20 36.99647 -8.28689 35948 ft 457 kts 320°
2026-04-27 15:20 37.04653 -8.33455 35139 ft 453 kts 321°
2026-04-27 15:21 37.07182 -8.35862 34233 ft 458 kts 321°
2026-04-27 15:21 37.09734 -8.38283 33274 ft 462 kts 321°
2026-04-27 15:21 37.12304 -8.40723 32327 ft 464 kts 322°
2026-04-27 15:21 37.14851 -8.43150 31387 ft 466 kts 322°
2026-04-27 15:22 37.17455 -8.45618 30427 ft 469 kts 322°
2026-04-27 15:22 37.20058 -8.48102 29313 ft 472 kts 321°
2026-04-27 15:22 37.22685 -8.50613 28198 ft 475 kts 321°
2026-04-27 15:22 37.25320 -8.53125 27120 ft 475 kts 321°
2026-04-27 15:23 37.27965 -8.55629 26030 ft 477 kts 322°
2026-04-27 15:23 37.30619 -8.58148 24938 ft 478 kts 321°
2026-04-27 15:23 37.33263 -8.60679 23958 ft 476 kts 321°
2026-04-27 15:23 37.35853 -8.63145 23120 ft 470 kts 321°
2026-04-27 15:24 37.38442 -8.65613 22216 ft 464 kts 321°
2026-04-27 15:24 37.40996 -8.68054 21363 ft 458 kts 321°
2026-04-27 15:24 37.43521 -8.70471 20764 ft 453 kts 321°
2026-04-27 15:24 37.46028 -8.72869 20423 ft 452 kts 322°
2026-04-27 15:25 37.48532 -8.75278 20148 ft 452 kts 321°
2026-04-27 15:25 37.50182 -8.76877 19981 ft 450 kts 321°
2026-04-27 15:25 37.52664 -8.79284 19737 ft 450 kts 322°
2026-04-27 15:25 37.55148 -8.81680 19493 ft 448 kts 322°
2026-04-27 15:26 37.57622 -8.84069 19263 ft 449 kts 322°
2026-04-27 15:26 37.60173 -8.86326 19007 ft 442 kts 330°
2026-04-27 15:26 37.63036 -8.87768 18757 ft 445 kts 343°
2026-04-27 15:26 37.66015 -8.88852 18522 ft 444 kts 344°
2026-04-27 15:27 37.68995 -8.89932 18305 ft 444 kts 343°
2026-04-27 15:27 37.71905 -8.91050 18041 ft 441 kts 342°
2026-04-27 15:27 37.74823 -8.92215 17774 ft 440 kts 342°
2026-04-27 15:27 37.77735 -8.93398 17509 ft 439 kts 342°
2026-04-27 15:28 37.80626 -8.94582 17253 ft 436 kts 342°
2026-04-27 15:28 37.83507 -8.95761 16995 ft 434 kts 342°
2026-04-27 15:28 37.86378 -8.96933 16734 ft 434 kts 342°
2026-04-27 15:28 37.89253 -8.98107 16479 ft 432 kts 342°
2026-04-27 15:29 37.92106 -8.99271 16187 ft 429 kts 342°
2026-04-27 15:29 37.94922 -9.00421 15585 ft 421 kts 341°
2026-04-27 15:29 37.97712 -9.01567 14714 ft 419 kts 341°
2026-04-27 15:29 38.00434 -9.02682 14107 ft 412 kts 342°
2026-04-27 15:30 38.03138 -9.03813 13776 ft 396 kts 341°
2026-04-27 15:30 38.05668 -9.04894 13513 ft 380 kts 341°
2026-04-27 15:30 38.08133 -9.05953 13287 ft 365 kts 341°
2026-04-27 15:30 38.10491 -9.06967 13088 ft 351 kts 341°
2026-04-27 15:31 38.12757 -9.07939 12904 ft 337 kts 341°
2026-04-27 15:31 38.14939 -9.08876 12743 ft 325 kts 342°
2026-04-27 15:31 38.16891 -9.09578 12581 ft 313 kts 346°
2026-04-27 15:31 38.18974 -9.10236 12259 ft 305 kts 347°
2026-04-27 15:32 38.21026 -9.10885 11812 ft 302 kts 347°
2026-04-27 15:32 38.23031 -9.11532 11367 ft 301 kts 347°
2026-04-27 15:32 38.25051 -9.12196 10930 ft 298 kts 346°
2026-04-27 15:32 38.27065 -9.12866 10488 ft 296 kts 347°
2026-04-27 15:33 38.29052 -9.13530 10002 ft 293 kts 347°
2026-04-27 15:33 38.31024 -9.14192 9478 ft 291 kts 347°
2026-04-27 15:33 38.32945 -9.14837 8986 ft 287 kts 347°
2026-04-27 15:33 38.34876 -9.15486 8472 ft 285 kts 347°
2026-04-27 15:34 38.36787 -9.16125 7962 ft 283 kts 348°
2026-04-27 15:34 38.38684 -9.16762 7453 ft 281 kts 348°
2026-04-27 15:34 38.40546 -9.17388 6957 ft 278 kts 348°
2026-04-27 15:34 38.42419 -9.18018 6463 ft 277 kts 348°
2026-04-27 15:35 38.44269 -9.18639 5970 ft 275 kts 348°
2026-04-27 15:35 38.46116 -9.19258 5505 ft 271 kts 348°
2026-04-27 15:35 38.47913 -9.19858 5207 ft 261 kts 348°
2026-04-27 15:35 38.49660 -9.20441 4750 ft 258 kts 348°
2026-04-27 15:36 38.51395 -9.21022 4229 ft 257 kts 347°
2026-04-27 15:36 38.53109 -9.21591 3975 ft 257 kts 348°
2026-04-27 15:36 38.54809 -9.22123 3993 ft 256 kts 349°
2026-04-27 15:36 38.56545 -9.22636 4034 ft 250 kts 347°
2026-04-27 15:37 38.58170 -9.23196 4030 ft 234 kts 346°
2026-04-27 15:37 38.59718 -9.23470 3933 ft 220 kts 10°
2026-04-27 15:37 38.61133 -9.22932 3689 ft 208 kts 25°
2026-04-27 15:37 38.62405 -9.22120 3461 ft 200 kts 28°
2026-04-27 15:38 38.63640 -9.21322 3165 ft 196 kts 26°
2026-04-27 15:38 38.64852 -9.20682 2895 ft 178 kts 24°
2026-04-27 15:38 38.65856 -9.20145 2693 ft 158 kts 22°
2026-04-27 15:38 38.66841 -9.19618 2390 ft 136 kts 21°
2026-04-27 15:39 38.67713 -9.19152 2192 ft 135 kts 20°
2026-04-27 15:39 38.68576 -9.18692 2020 ft 134 kts 20°
2026-04-27 15:39 38.69437 -9.18232 1839 ft 134 kts 20°
2026-04-27 15:39 38.70296 -9.17774 1682 ft 135 kts 19°
2026-04-27 15:40 38.71165 -9.17309 1492 ft 135 kts 20°
2026-04-27 15:40 38.72018 -9.16853 1322 ft 135 kts 19°
2026-04-27 15:40 38.72884 -9.16389 1149 ft 134 kts 18°
2026-04-27 15:40 38.73755 -9.15924 982 ft 136 kts 19°
2026-04-27 15:41 38.74623 -9.15446 747 ft 138 kts 18°
2026-04-27 15:41 38.75501 -9.14999 576 ft 134 kts 20°
2026-04-27 15:41 38.76355 -9.14541 405 ft 132 kts 20°
2026-04-27 15:41 38.77182 -9.14098 362 ft 116 kts 21°
2026-04-27 15:42 38.77758 -9.13793 370 ft 65 kts 24°
2026-04-27 15:42 38.78051 -9.13637 372 ft 42 kts 22°
2026-04-27 15:42 38.78304 -9.13443 370 ft 43 kts 47°
2026-04-27 15:42 38.78352 -9.13378 369 ft 3 kts 47°
2026-04-27 15:43 38.78375 -9.13333 368 ft 8 kts 71°
2026-04-27 15:43 38.78361 -9.13260 370 ft 11 kts 160°
2026-04-27 15:43 38.78276 -9.13287 365 ft 14 kts 202°
2026-04-27 15:43 38.78172 -9.13343 365 ft 18 kts 202°
2026-04-27 15:44 38.78052 -9.13407 363 ft 20 kts 202°
2026-04-27 15:44 38.77919 -9.13478 363 ft 21 kts 202°
2026-04-27 15:44 38.77776 -9.13553 362 ft 23 kts 202°
2026-04-27 15:44 38.77622 -9.13636 367 ft 25 kts 203°
2026-04-27 15:45 38.77454 -9.13727 364 ft 27 kts 203°
2026-04-27 15:45 38.77298 -9.13810 366 ft 21 kts 202°
2026-04-27 15:45 38.77158 -9.13884 361 ft 23 kts 202°
2026-04-27 15:45 38.77010 -9.13964 359 ft 24 kts 202°
2026-04-27 15:46 38.76868 -9.14040 356 ft 0 kts 202°
2026-04-27 15:46 38.76856 -9.14047 350 ft 6 kts 204°
2026-04-27 15:47 38.76791 -9.14072 350 ft 12 kts 186°
2026-04-27 15:47 38.76729 -9.14062 348 ft 4 kts 168°
2026-04-27 15:47 38.76706 -9.14043 355 ft 5 kts 95°
2026-04-27 15:47 38.76712 -9.13991 349 ft 4 kts 77°
2026-04-27 15:48 38.76717 -9.13961 356 ft 1 kts 78°